Disclaimer

Please do not use the information listed here in-flight or in-navigation, as they are not provided to us by the airports but are provided by volunteers, so they might be outdated.

Search


Regions


Airport information page

Radio informations:
TAIPEI TWR - 118.7 MHz
Ground (GND) - 121.7 MHz
Automatic Terminal Information Service (ATIS) - 127.6 MHz
TAIPEI APP - 119.6 MHz

Latitude: N/A
Longitude: N/A
Elevation: N/A
Operating hours: N/A
Operating agency: N/A
Timezone: N/A
Fuel: N/A

Recent METARs:
RCTP 152100Z 04020G30KT 6000 -RA SCT004 BKN006 BKN015 15/15 Q1021 WS ALL RWY NOSIG RMK A3017 RA AMT 1.0MM
RCTP 152130Z 04022KT 6000 -RA SCT004 BKN006 BKN015 15/15 Q1021 WS ALL RWY NOSIG RMK A3016
RCTP 152230Z 04020KT 6000 -RA SCT004 BKN006 BKN015 15/15 Q1021 WS ALL RWY NOSIG RMK A3017

Airport on the map: